NORAD ID: 24907 Int'l Code: 1997-043E Perigee: 783.1 km Apogee: 786.6 km Inclination: 86.4° Period: 100.4 min Semi major axis: 7,155.8 km Launch date: August 21, 1997 Source: United States (US)
Two Line Element Set (TLE):
1 24907U 97043E 10249.38607518 .00000121 00000-0 36086-4 0 1723 2 24907 086.3963 210.5743 0002457 082.6646 277.4837 14.34215358682977
More details about IRIDIUM 22
Where is IRIDIUM 22 now?